This is the latest recevied weather packets stored in our database for station/object JR5VPD-10. If no packets are shown the sender has not sent any weather packets the latest 10 day(s).
| Time | Temp. | Humidity | Pressure | Rain* | Wind** | Luminosity | Snow |
|---|---|---|---|---|---|---|---|
| 1787731572 | 31.67° C | 69% | 1004.9 hPa | 0 mm | 0 m/s | - | - |
| 1787729772 | 31.67° C | 72% | 1005 hPa | 0 mm | 0 m/s | - | - |
| 1787727972 | 32.78° C | 71% | 1005.3 hPa | 0 mm | 0 m/s | - | - |
| 1787726172 | 31.67° C | 73% | 1005.3 hPa | 0 mm | 0 m/s | - | - |
| 1787724372 | 32.78° C | 73% | 1005.6 hPa | 0 mm | 0 m/s | - | - |
| 1787722572 | 32.78° C | 74% | 1006.1 hPa | 0 mm | 0 m/s | - | - |
| 1787720772 | 32.78° C | 71% | 1006.4 hPa | 0 mm | 0 m/s | - | - |
| 1787718972 | 32.78° C | 65% | 1006.7 hPa | 0 mm | 0 m/s | - | - |
| 1787717172 | 32.78° C | 63% | 1006.7 hPa | 0 mm | 0 m/s | - | - |
| 1787715372 | 32.78° C | 67% | 1006.5 hPa | 0 mm | 0 m/s | - | - |
| 1787713572 | 32.78° C | 66% | 1007.1 hPa | 0 mm | 0 m/s | - | - |
| 1787711772 | 32.78° C | 66% | 1007.1 hPa | 0 mm | 0 m/s | - | - |
| 1787709972 | 31.67° C | 70% | 1007.3 hPa | 0 mm | 0 m/s | - | - |
| 1787708172 | 31.67° C | 73% | 1007.5 hPa | 0 mm | 0 m/s | - | - |
| 1787706372 | 31.67° C | 70% | 1007.5 hPa | 0 mm | 0 m/s | - | - |
| 1787704572 | 31.67° C | 70% | 1007.8 hPa | 0 mm | 0 m/s | - | - |
| 1787702772 | 31.67° C | 78% | 1007.8 hPa | 0 mm | 0 m/s | - | - |
| 1787700972 | 30.56° C | 82% | 1008.2 hPa | 0 mm | 0 m/s | - | - |
| 1787699172 | 30.56° C | 83% | 1008.3 hPa | 0 mm | 0 m/s | - | - |
| 1787697372 | 30.56° C | 83% | 1008 hPa | 0 mm | 0 m/s | - | - |
| 1787695572 | 30° C | 87% | 1008.1 hPa | 0 mm | 0 m/s | - | - |
| 1787693772 | 30° C | 85% | 1007.8 hPa | 0 mm | 0 m/s | - | - |
| 1787691972 | 28.89° C | 87% | 1007.8 hPa | 0 mm | 0 m/s | - | - |
| 1787690172 | 28.89° C | 89% | 1007.5 hPa | 0 mm | 0 m/s | - | - |
| 1787688372 | 28.89° C | 90% | 1007.4 hPa | 0 mm | 0 m/s | - | - |
* Rain latest hour (hover to see other rain measurements)
** Current wind speed in m/s (hover to see current wind gust speed)